Wind_Speed
11 12 12 12 11 11 11 11 11 9 8 7 7 6 6 6 5 5 4 4 4 4 4 5 6 6 7 7 7 7 7 7 7 8 8 8 7 7 7 8 9 10 11 11 12 12 12 11 11 11 10 10 11 11 11 11 11 11 11 12 12 12 12 13 13 12 12 12 12 12 12 12 12 11 12 12 12 12 12 12 13 13 13 14 14
10 11 12 12 12 10 10 11 11 9 8 7 7 6 6 6 7 7 6 6 6 5 5 6 6 7 7 7 7 7 7 8 8 8 7 7 7 7 8 9 10 10 11 12 12 11 11 11 10 10 10 10 10 11 11 11 11 11 12 12 12 12 12 13 13 12 13 13 13 13 12 12 12 12 12 12 12 12 13 13 13 14 14 14 15
11 11 12 12 12 11 10 11 10 9 8 8 7 7 6 6 7 8 7 7 6 6 6 6 6 7 8 8 7 7 8 8 8 8 7 7 8 8 9 10 10 10 11 11 11 10 10 10 10 10 10 10 10 10 11 11 11 12 12 12 12 12 12 12 12 12 13 13 13 13 12 12 12 12 12 13 13 13 13 13 14 14 14 15 16
12 12 12 12 11 11 10 9 9 9 8 8 8 7 7 7 7 8 7 7 6 6 6 6 7 8 8 8 8 8 8 8 8 8 8 8 8 9 10 10 10 10 10 10 10 10 9 9 10 10 10 11 11 11 11 12 12 12 12 12 12 12 12 12 12 12 12 12 12 12 12 12 12 13 13 13 13 14 14 14 15 15 16 17 18
11 12 13 12 11 10 9 8 8 8 8 7 7 8 7 7 7 8 8 7 6 6 6 7 7 7 7 7 7 7 7 7 8 8 8 8 9 9 10 10 10 9 9 9 9 9 9 10 10 10 11 11 12 12 12 12 12 12 12 12 12 12 12 12 12 12 12 12 12 12 12 12 12 13 13 13 14 14 14 15 16 17 18 19 21
9 11 12 12 11 10 9 7 7 7 7 7 7 8 8 9 8 9 9 9 7 7 6 7 6 6 6 6 7 7 7 7 7 7 8 8 9 9 9 10 9 9 9 9 9 9 10 10 10 11 11 12 12 12 12 12 12 12 12 12 12 12 12 12 12 12 12 12 12 12 12 13 13 13 13 14 14 15 16 17 18 19 20 21 22
8 9 10 10 10 10 9 8 7 7 7 7 7 8 9 9 9 9 10 10 8 7 6 6 6 6 6 6 6 6 7 7 7 7 8 8 9 9 9 9 9 8 8 9 9 10 10 11 11 11 11 12 12 12 12 12 11 11 11 11 11 11 11 11 12 12 12 12 12 12 12 13 13 14 14 15 16 17 18 19 20 21 21 22 23
6 7 8 9 9 8 8 8 6 6 6 6 7 8 9 9 9 9 10 10 9 7 6 5 5 5 5 5 5 6 6 6 7 7 8 8 9 9 9 9 8 8 8 9 10 10 10 10 10 11 11 11 11 11 11 11 10 10 11 10 10 11 11 11 12 12 12 12 12 12 12 13 14 15 15 16 17 18 19 20 21 22 22 23 24
6 5 6 7 8 8 7 7 5 5 6 6 6 7 9 9 9 9 10 10 9 7 5 4 4 4 4 4 5 5 6 6 7 8 8 9 9 8 8 8 8 8 9 9 9 10 10 10 10 10 10 10 10 10 10 10 10 10 10 10 10 11 11 11 11 12 12 12 12 13 14 14 15 16 17 17 18 19 20 21 22 22 23 24 24
6 4 4 5 6 6 6 6 4 4 5 6 6 7 8 8 8 9 9 8 8 7 5 4 4 3 4 4 4 5 6 7 8 8 8 8 8 8 8 8 8 8 9 9 9 9 9 9 9 9 9 9 9 9 9 9 9 10 10 10 10 11 11 11 11 11 12 12 13 13 14 15 16 16 17 18 19 20 20 21 22 22 23 24 25
4 4 3 3 4 5 5 4 4 3 4 6 7 7 8 8 8 8 8 7 7 6 5 4 3 3 3 4 5 6 7 8 8 8 8 8 8 7 7 7 8 8 8 8 8 8 8 8 8 9 9 9 9 9 8 9 9 9 10 10 10 10 10 11 11 11 11 12 13 13 14 15 16 16 17 18 19 20 20 21 22 23 24 24 25
3 2 2 2 3 4 5 4 4 3 4 5 6 7 8 7 7 7 7 6 6 5 5 4 4 4 4 4 5 7 7 7 7 7 7 7 7 7 7 7 8 8 8 8 8 8 8 8 8 8 8 8 8 8 8 9 9 10 10 10 11 11 11 11 11 11 12 12 13 14 14 15 16 16 17 18 19 20 20 21 22 23 24 25 25
3 2 1 2 2 3 4 5 5 4 4 5 6 7 7 6 6 6 6 5 5 4 4 4 4 4 5 5 6 6 7 7 6 7 7 7 7 7 7 7 7 7 7 7 7 7 7 7 7 7 7 7 7 8 8 9 9 10 10 10 10 10 11 11 11 12 12 13 13 14 15 16 16 17 18 18 19 19 20 21 22 23 24 25 26
5 3 2 2 3 3 3 5 6 5 4 5 6 7 7 6 5 5 5 5 3 3 3 4 4 4 5 5 5 6 6 6 6 6 6 6 6 6 6 7 7 7 6 6 6 6 5 5 6 6 6 6 7 7 7 8 8 9 9 9 9 10 10 10 11 11 12 13 13 14 15 16 17 17 18 18 19 20 21 23 24 25 26 27 28
6 4 3 3 3 3 2 4 5 5 5 5 6 6 7 5 4 4 4 3 3 3 3 4 4 4 4 4 5 5 6 6 6 5 5 6 6 6 6 6 6 5 5 5 5 5 4 4 4 5 5 5 6 6 6 7 7 7 8 8 8 9 9 9 10 10 11 12 13 14 15 16 17 18 18 19 20 22 23 24 26 27 28 29 30
6 5 4 4 4 3 2 3 4 6 6 6 6 6 6 5 4 3 3 2 3 3 4 4 5 4 4 4 4 5 5 5 5 5 5 5 5 5 5 4 4 4 4 4 3 3 3 3 4 4 5 5 6 6 6 6 7 7 7 8 8 9 9 9 10 11 11 12 13 14 15 16 16 17 19 20 21 23 24 25 26 27 29 30 31
6 6 5 5 5 4 2 3 4 6 7 7 7 7 7 6 4 3 2 3 4 5 5 5 5 4 4 4 4 4 4 4 4 4 4 4 4 4 3 3 3 3 2 2 2 3 3 4 4 5 5 5 5 6 6 6 6 7 8 8 9 9 10 10 11 11 12 13 13 14 15 15 16 18 20 21 22 23 24 26 27 28 29 30 31
6 6 6 6 6 4 3 3 4 6 7 8 8 7 7 6 4 3 3 4 5 5 5 5 5 4 4 4 3 3 3 3 3 3 3 3 3 2 2 1 1 2 2 2 2 3 4 4 5 5 6 6 6 6 6 6 6 7 8 8 9 9 10 11 12 12 12 13 13 14 15 16 18 19 21 22 23 24 26 27 28 29 30 31 32
7 7 7 7 7 5 5 4 5 6 7 8 7 7 7 6 5 4 4 5 6 6 6 5 5 4 3 3 3 3 2 3 2 2 2 1 1 1 1 1 2 2 2 3 3 4 5 5 6 6 6 6 6 6 6 6 7 7 8 8 9 9 10 11 11 12 12 13 14 15 17 18 19 21 22 23 24 26 27 28 29 30 31 32 33
8 8 8 8 8 7 6 5 5 6 6 7 7 6 6 6 5 5 5 6 7 7 6 5 5 4 3 3 3 2 2 2 2 1 0 0 1 2 2 2 3 3 4 4 4 5 5 6 6 6 6 6 6 6 7 7 7 8 8 9 9 9 10 11 12 12 13 14 16 17 18 20 21 22 23 24 25 26 27 28 29 30 32 33 34
10 9 9 9 8 8 7 6 6 6 6 7 7 6 6 5 5 5 6 7 7 7 7 6 5 4 4 3 3 3 2 2 1 1 2 2 2 3 4 4 4 4 5 5 5 5 5 6 6 6 6 6 7 7 7 7 7 7 8 8 9 9 10 11 12 14 15 16 18 19 20 21 22 24 24 25 26 27 28 29 30 31 33 34 35
11 10 10 10 9 8 7 7 7 7 7 7 8 7 7 6 6 6 7 7 8 8 7 6 5 5 4 4 3 3 2 2 3 3 4 4 4 4 5 5 5 6 6 6 5 5 5 6 6 6 6 6 7 7 7 7 7 7 7 8 8 9 11 12 13 15 17 18 19 21 22 23 24 25 26 27 28 29 30 31 32 33 34 36 37
13 12 12 11 10 9 8 8 8 8 8 8 9 8 8 7 6 7 7 7 8 8 7 6 6 5 5 4 4 3 3 4 5 5 5 5 6 6 6 7 7 7 6 6 6 6 6 6 6 6 6 7 7 7 7 7 7 7 7 8 9 10 12 13 14 16 18 19 21 22 23 24 25 26 27 28 29 31 32 33 34 35 36 37 39
13 13 13 13 11 10 10 9 9 9 10 10 10 10 9 8 8 8 8 8 8 8 7 7 6 6 5 5 4 4 5 6 7 7 7 7 7 7 7 8 7 7 7 7 7 7 7 6 6 6 6 7 7 7 7 8 8 8 9 10 11 12 13 14 16 17 19 20 22 23 25 26 27 28 29 30 31 32 33 34 35 36 37 39 40
13 14 15 15 13 12 11 11 11 10 11 12 12 12 11 10 10 9 9 9 9 9 8 8 7 7 6 6 6 6 7 8 8 8 8 8 8 8 8 8 8 8 8 7 7 7 7 7 7 7 7 7 8 8 8 9 9 10 11 11 13 14 15 16 17 19 20 22 23 24 26 27 28 29 30 31 32 33 34 35 37 38 39 40 41
14 14 15 16 15 14 13 13 12 12 12 13 13 13 13 12 11 10 10 10 10 10 9 9 8 7 7 7 7 8 8 9 9 9 9 9 9 9 9 9 9 9 8 8 8 8 8 9 9 8 8 8 8 9 9 10 11 11 12 13 14 15 17 18 19 20 22 23 25 26 27 29 30 31 32 33 34 35 36 37 38 39 40 41 43
15 15 16 17 17 16 15 14 14 14 14 14 14 14 13 12 12 11 11 10 10 10 9 9 8 8 7 8 8 9 9 10 10 10 10 10 10 10 10 10 10 9 9 9 9 9 10 10 10 10 9 9 9 10 10 11 12 12 14 15 16 17 18 19 20 22 23 25 26 27 29 30 31 32 33 34 35 36 37 38 39 40 41 43 44
15 15 16 17 18 18 17 16 15 15 15 15 15 14 14 13 12 12 11 11 11 10 10 10 9 9 9 9 10 10 11 11 11 11 11 11 11 11 11 11 11 10 10 10 10 10 11 11 11 11 11 11 11 11 12 13 14 14 15 16 18 19 20 21 22 23 25 26 27 29 30 31 33 34 35 36 37 38 39 39 41 42 43 45 46
16 15 15 16 17 17 17 16 15 15 15 15 15 15 14 13 13 13 12 11 11 11 10 10 10 10 10 10 11 11 12 12 12 11 11 11 11 12 12 12 12 11 11 11 11 12 12 12 12 12 12 12 12 13 13 14 15 16 17 18 19 20 22 23 24 25 26 28 29 30 32 33 34 35 37 38 38 39 40 41 42 44 45 46 48
16 16 15 15 15 16 16 16 15 15 15 15 15 15 15 14 14 13 13 12 12 11 11 11 10 10 11 11 12 13 13 13 13 12 12 12 12 12 13 13 13 13 13 13 13 13 13 13 13 13 14 14 14 14 15 16 17 18 19 20 21 22 24 25 26 27 28 29 31 32 33 35 36 37 38 39 40 41 42 43 44 45 47 48 49
16 15 15 15 15 15 15 15 15 15 15 15 15 15 15 15 15 14 13 13 12 12 12 12 11 12 12 12 13 14 14 14 14 13 13 13 13 13 14 14 14 14 14 14 14 15 15 15 14 15 15 16 16 16 17 18 19 20 21 22 23 24 26 27 28 29 30 31 33 34 35 36 37 39 40 41 42 43 44 45 46 47 48 49 50
16 15 14 14 14 14 14 15 15 15 15 15 16 16 15 15 16 15 14 13 13 13 13 12 12 13 13 14 14 14 14 14 15 15 14 14 14 14 15 15 15 15 15 16 16 16 16 15 16 16 17 17 18 18 19 20 21 22 23 24 25 26 28 29 30 31 32 33 34 36 37 38 39 40 42 43 44 45 46 47 48 49 50 51 52
16 15 14 13 13 14 14 15 15 15 16 16 16 16 16 16 16 15 14 13 13 13 13 13 14 14 14 15 15 15 15 15 15 15 16 15 15 15 16 16 16 17 17 17 17 17 17 17 17 18 18 19 20 20 20 21 23 24 25 26 27 28 30 31 32 33 34 35 36 37 38 40 41 42 43 45 46 47 47 48 49 50 51 52 53
16 16 15 14 14 14 15 16 16 16 16 16 16 16 16 17 16 16 14 14 14 14 14 14 14 15 15 16 16 16 16 16 16 16 17 17 17 17 17 17 18 18 19 19 19 18 18 18 18 19 20 21 22 22 23 23 24 26 27 28 29 30 31 33 33 34 35 36 37 39 40 41 43 44 45 46 47 48 49 50 51 52 52 53 54
16 17 17 16 15 15 16 17 17 17 17 17 17 17 17 17 16 16 15 14 15 15 15 15 15 16 16 17 17 17 17 17 17 17 18 18 18 18 18 19 19 19 20 20 20 20 19 19 19 20 21 22 23 24 25 26 27 28 29 30 31 32 33 34 35 36 37 38 39 40 41 43 44 46 47 48 49 50 50 51 52 53 54 54 55
16 16 17 16 16 16 17 17 17 17 18 18 18 18 18 18 17 16 16 15 15 16 16 16 17 17 17 17 18 18 18 18 18 18 18 19 19 19 20 20 21 21 21 22 22 22 21 21 21 22 23 24 25 26 27 28 29 30 31 32 33 34 34 35 36 37 38 39 40 41 43 44 46 47 48 49 50 51 52 53 53 54 55 56 56
16 16 17 17 17 17 18 18 18 18 18 18 19 20 20 19 18 17 17 17 17 17 18 18 18 18 18 19 19 20 20 20 19 19 20 20 20 21 21 21 22 22 22 23 23 24 23 23 23 24 25 26 26 27 28 30 31 32 33 34 35 35 36 37 37 38 39 40 42 43 44 46 47 48 49 51 52 53 53 54 54 55 56 56 57
16 16 17 17 18 18 19 18 18 18 19 19 20 21 21 21 20 19 19 19 18 19 19 19 19 18 19 20 20 21 21 21 21 21 21 21 22 22 22 23 23 24 24 24 24 25 25 25 25 25 26 27 28 29 30 31 32 33 34 35 36 37 37 38 39 40 41 42 43 44 46 47 48 50 51 52 53 54 54 55 55 56 56 57 57
16 16 17 17 17 18 19 19 19 19 20 20 21 21 22 22 22 21 21 20 20 20 20 20 19 19 19 20 21 22 22 22 23 23 22 22 23 23 24 24 25 25 25 26 25 25 26 27 27 27 27 28 29 30 32 33 34 34 35 36 37 38 39 40 41 42 42 43 44 46 47 48 49 51 52 53 54 54 55 56 56 56 56 57 58
17 17 17 18 18 19 20 20 20 20 21 21 22 22 23 24 24 23 22 22 22 21 21 20 20 20 20 21 22 23 23 23 24 24 23 23 23 24 25 25 26 26 27 27 26 26 27 28 29 29 29 30 30 31 33 34 35 36 37 38 39 40 41 42 42 43 44 45 46 47 48 49 51 52 53 54 55 55 56 57 57 57 57 57 58
18 18 19 19 19 19 20 21 21 21 21 22 23 24 25 25 26 25 24 23 23 22 22 21 21 21 21 22 23 24 24 24 24 24 24 24 24 25 26 27 27 28 28 28 27 27 28 29 30 31 31 32 33 33 34 35 36 38 38 40 41 42 42 43 43 44 45 46 47 48 49 50 52 53 54 55 55 56 57 57 57 57 58 58 58
20 20 20 20 20 20 20 22 22 21 22 23 24 25 27 27 27 26 26 24 24 23 23 22 22 21 22 23 24 25 25 25 26 25 24 24 25 25 26 28 29 30 30 29 28 28 29 30 31 32 33 34 35 36 37 37 38 39 40 41 42 43 44 44 45 45 46 47 48 49 50 51 52 53 54 55 56 57 57 57 58 58 58 59 59
21 20 20 20 20 21 22 23 23 22 23 24 25 27 29 29 29 28 27 25 24 24 24 24 23 23 24 25 26 27 27 27 26 25 24 25 25 26 27 29 30 31 31 31 31 31 31 31 32 33 34 35 36 38 39 39 40 41 41 42 43 44 45 45 46 46 47 48 49 50 51 52 53 54 55 56 57 57 57 58 58 58 58 59 60
22 21 21 21 22 22 23 24 23 23 24 25 26 28 30 30 30 29 28 26 25 25 25 25 25 26 26 26 27 28 28 28 28 27 26 26 27 28 28 30 31 31 32 33 33 33 33 33 34 34 35 36 37 39 40 41 42 42 43 43 44 45 46 47 47 47 48 49 50 51 52 53 54 55 56 57 57 58 58 58 58 58 59 60 60
22 22 22 23 24 24 24 24 24 24 25 26 28 29 30 31 31 31 30 28 27 27 27 27 28 28 28 28 28 28 29 29 29 29 28 28 29 29 30 31 32 32 33 34 34 34 34 35 36 36 36 37 39 41 42 42 43 43 44 45 45 46 47 48 48 49 49 50 51 52 53 54 54 55 56 57 58 58 58 58 59 59 59 60 61
24 25 25 26 25 25 25 25 25 25 26 27 29 30 31 32 32 32 31 30 29 29 29 30 30 29 29 29 29 29 30 30 30 30 30 31 31 31 32 33 33 33 33 34 35 35 35 36 37 37 38 39 40 42 43 44 44 45 46 46 47 47 48 48 49 49 50 51 52 53 53 54 55 56 57 57 58 58 58 58 59 59 60 61 62
26 28 28 27 26 26 27 27 27 26 27 28 29 31 32 33 33 34 33 32 31 31 31 32 32 31 30 30 30 31 31 31 31 32 32 32 33 34 35 35 35 34 34 35 36 36 37 37 38 38 39 41 42 43 44 45 46 47 47 48 49 49 49 49 50 50 52 52 53 54 54 55 55 56 57 57 58 58 58 58 59 59 60 62 64
29 29 28 27 28 28 28 28 28 27 28 28 29 31 33 34 34 35 35 34 33 33 34 34 34 33 32 32 32 33 33 33 32 33 33 34 35 36 36 37 37 36 36 37 38 38 38 38 39 40 41 42 43 44 45 46 47 48 49 49 50 51 51 51 51 52 53 53 54 54 55 55 56 56 56 57 57 57 57 58 59 59 61 63 65
30 29 28 28 29 29 29 29 29 29 30 30 30 31 34 35 35 36 36 35 35 36 36 36 35 35 35 34 34 35 35 35 34 34 35 35 36 37 38 38 38 38 38 39 39 39 39 39 40 41 42 43 44 45 46 47 48 49 50 50 51 52 52 53 53 53 54 54 55 55 55 55 55 55 55 56 56 56 57 57 58 60 62 64 66
30 29 29 29 30 30 30 30 31 32 32 33 32 32 34 35 35 35 36 37 37 38 38 38 37 38 37 36 36 37 37 37 36 36 36 36 37 39 40 40 40 40 40 41 41 41 41 41 42 42 43 45 46 47 47 48 49 50 51 52 52 53 53 54 55 55 55 55 56 56 56 55 55 54 54 54 54 55 56 57 59 61 63 65 66
31 31 30 31 31 31 31 32 32 33 33 34 34 34 35 35 35 35 37 37 38 39 40 40 40 40 40 40 39 39 39 39 38 38 38 38 38 40 41 42 42 41 42 42 43 42 43 43 43 44 45 46 47 48 49 49 50 51 52 53 54 54 55 55 55 56 56 56 56 56 55 54 53 53 52 52 52 53 55 57 59 61 63 65 66
Wind_Direction
115 124 123 121 123 122 123 121 121 120 119 114 108 109 114 115 116 123 136 141 129 123 116 105 98 91 81 75 72 72 75 79 83 82 80 78 73 70 69 67 66 66 67 68 68 69 70 70 69 68 67 66 64 62 61 60 59 59 58 58 58 56 54 54 54 52 50 48 46 44 41 37 33 29 24 21 18 14 11 8 5 3 0 358 355
116 127 128 126 127 128 126 122 121 122 122 119 118 121 121 119 116 115 118 118 115 112 105 98 91 85 78 75 78 81 85 87 87 85 82 79 77 77 75 73 72 71 70 72 73 74 75 75 74 72 70 67 65 63 63 62 61 60 59 58 57 55 53 52 51 49 47 45 43 39 37 33 30 26 23 19 16 13 11 8 5 2 359 356 352
118 128 134 134 134 136 134 128 128 128 128 129 127 124 121 121 118 115 112 109 107 104 98 91 87 84 81 81 82 85 84 83 81 78 76 75 76 75 75 74 73 72 74 76 78 78 78 77 75 72 68 65 64 64 63 63 61 60 59 57 55 54 53 51 49 47 45 42 40 37 34 31 27 25 22 19 15 12 9 5 2 357 353 349 345
120 128 136 139 139 140 139 133 131 130 128 126 123 118 116 117 118 116 111 107 102 99 96 92 90 87 86 85 82 80 76 73 70 69 71 73 74 74 77 77 76 77 79 81 80 79 76 73 71 68 67 66 66 65 64 64 62 61 59 58 55 54 53 51 49 46 44 42 40 37 33 29 25 21 19 15 11 7 2 358 353 349 346 343 339
123 129 136 140 142 140 138 133 128 124 121 120 116 114 114 115 116 113 109 105 101 97 96 94 92 89 86 83 79 74 68 64 65 69 73 74 76 78 79 81 81 81 81 80 77 74 71 69 68 68 68 69 69 68 67 65 64 62 60 58 55 53 52 50 48 45 42 39 36 33 28 25 20 16 12 8 4 359 354 350 346 344 341 339 337
128 134 138 141 144 143 138 136 133 122 118 119 117 114 114 115 114 110 109 105 99 96 95 96 92 88 83 78 75 70 65 63 66 71 74 77 80 82 83 83 81 78 77 74 73 70 69 68 69 69 70 71 71 70 69 67 66 63 62 58 54 51 49 47 44 41 38 34 31 27 22 17 13 9 4 360 356 351 347 344 342 340 338 337 335
132 139 143 144 146 147 142 143 142 126 118 117 115 113 112 113 113 111 109 104 99 96 94 94 93 88 81 75 72 68 65 65 68 74 79 83 84 85 84 82 79 74 71 70 70 69 70 70 70 71 71 72 71 71 69 68 66 64 61 57 53 49 45 41 38 35 31 29 24 20 15 9 5 1 357 353 349 346 344 341 340 339 337 336 335
135 141 144 147 150 153 150 150 147 127 117 113 112 111 109 110 112 110 106 104 100 96 91 89 87 82 76 70 69 70 70 74 79 85 88 88 86 85 82 79 76 71 68 68 70 71 73 73 73 73 71 71 69 68 66 65 64 61 58 54 49 45 41 37 32 28 25 22 16 11 6 2 358 354 351 348 345 343 342 340 339 338 337 336 335
133 142 147 152 157 163 161 157 148 125 117 112 111 110 107 106 106 105 103 103 102 99 94 84 78 76 73 71 73 78 84 88 90 90 88 86 84 81 78 76 74 71 69 69 71 73 74 75 75 74 72 69 66 63 61 59 57 55 52 48 43 38 34 31 27 21 18 13 8 3 359 355 352 349 347 345 343 342 341 339 339 338 338 337 337
129 137 151 164 169 175 175 167 154 127 119 117 115 116 110 104 103 104 103 104 105 106 100 89 79 75 76 79 82 87 88 87 85 86 85 83 81 78 76 74 74 74 74 73 73 73 73 73 72 71 69 65 62 58 54 50 48 46 43 40 37 33 29 25 20 15 10 5 1 357 353 350 347 345 344 343 342 341 340 340 339 339 339 340 339
137 134 144 175 187 193 194 184 171 141 126 126 124 124 117 106 104 107 107 106 106 106 103 97 87 76 73 75 79 82 80 80 80 82 82 80 77 76 76 77 77 78 79 79 77 75 73 70 68 64 61 57 54 50 45 41 38 36 34 32 30 27 23 18 13 8 3 358 354 350 347 345 343 343 342 342 342 342 342 342 342 341 341 341 341
166 145 139 185 205 211 207 202 196 175 144 138 131 127 123 111 108 111 108 102 97 97 96 89 78 70 68 70 74 77 77 77 78 79 78 78 76 76 77 79 80 81 81 80 77 74 70 67 63 58 54 49 45 42 36 32 29 27 25 23 21 19 16 10 4 359 355 351 348 346 344 343 342 343 345 345 345 345 345 344 343 343 343 342 342
214 192 175 218 222 226 213 204 205 196 168 150 138 130 129 120 112 112 106 95 89 86 82 76 69 65 64 70 76 79 80 78 77 77 76 76 76 76 78 80 80 80 79 78 75 71 66 62 59 56 50 43 38 34 29 25 22 20 18 15 13 10 7 1 355 352 350 347 346 344 344 344 345 347 348 348 347 347 346 346 345 345 344 344 343
229 225 233 249 239 237 218 201 201 196 179 160 145 136 135 126 115 111 102 96 93 86 79 75 70 67 70 75 78 80 81 80 76 73 73 76 78 80 80 81 80 79 78 75 73 69 64 58 53 52 46 37 31 27 22 19 17 14 12 9 5 1 357 353 349 348 347 345 345 345 346 348 349 350 349 349 348 348 349 348 347 346 346 345 344
229 231 236 245 245 245 219 196 196 189 176 167 156 146 141 130 121 116 104 101 104 97 93 87 80 78 81 81 80 79 78 75 72 72 77 81 83 85 85 85 84 81 78 73 69 65 58 50 43 40 37 30 23 18 14 11 10 7 4 1 357 353 349 348 347 347 346 346 347 348 350 350 351 350 348 349 349 349 350 349 347 346 346 345 344
227 230 232 228 234 244 227 189 187 182 172 169 165 156 147 139 136 128 115 110 108 109 105 97 90 87 85 81 78 77 74 71 71 77 83 88 88 89 90 90 89 85 78 70 62 51 39 32 26 24 22 18 13 7 4 2 359 357 356 355 351 348 347 347 348 348 349 349 350 351 351 350 348 348 347 349 349 349 348 347 346 345 344 343 342
222 223 222 213 216 232 232 188 178 175 171 171 170 165 156 149 149 142 129 116 113 116 111 103 98 91 86 81 78 74 71 73 77 86 90 92 90 90 91 90 87 79 68 54 38 24 13 10 8 7 5 4 2 356 355 352 349 350 352 351 348 347 347 348 349 349 350 350 351 350 348 346 346 347 347 348 347 347 346 345 344 342 341 341 341
212 215 212 207 207 217 227 203 180 175 173 174 173 172 164 157 160 154 138 125 123 122 118 114 106 99 94 87 83 81 82 89 93 100 98 93 91 87 82 73 57 40 23 8 356 354 353 354 355 353 353 353 349 346 344 342 344 349 350 348 346 346 347 347 347 347 347 347 347 346 344 344 344 345 345 345 344 344 343 342 341 340 339 338 338
207 211 209 208 208 209 221 215 191 182 179 178 177 179 172 166 169 160 144 135 133 131 126 123 117 115 110 104 103 103 110 112 114 114 106 94 77 32 357 348 347 342 334 332 336 342 345 345 346 345 345 343 338 335 334 337 346 349 347 345 344 345 345 344 342 341 343 343 343 341 341 341 342 341 341 341 341 341 339 338 337 336 336 335 335
210 212 214 213 212 211 217 220 204 189 185 181 180 186 183 177 177 163 149 144 142 140 135 133 132 132 130 129 132 135 141 138 145 156 177 256 302 307 305 309 312 315 315 319 328 335 337 337 338 339 337 333 328 326 330 339 345 345 342 341 340 340 339 337 336 337 339 340 339 338 338 338 338 338 338 338 337 336 335 334 333 333 332 332 332
220 217 221 220 217 216 215 219 211 195 190 184 182 191 195 186 180 167 156 155 152 147 145 147 148 150 152 153 159 167 171 184 207 238 257 271 284 289 292 296 300 304 307 312 320 326 328 330 330 331 327 323 319 322 331 338 339 337 336 334 334 333 333 332 333 334 336 337 335 334 333 334 334 334 334 333 332 331 330 330 330 330 329 329 329
233 225 227 229 226 224 218 217 213 201 194 188 186 192 198 193 184 175 166 164 161 156 155 159 163 166 169 172 181 194 206 230 248 259 267 274 280 284 289 292 296 299 302 308 314 318 320 322 321 319 317 313 314 320 327 329 328 327 326 326 326 326 327 329 331 332 332 332 330 330 330 330 330 330 330 329 328 328 327 327 328 328 327 327 327
246 237 234 233 232 232 225 218 214 205 198 193 193 193 196 194 185 180 176 174 170 166 166 169 175 179 184 191 202 221 238 253 261 266 271 276 280 284 287 289 292 295 299 306 309 312 312 311 309 306 304 305 308 314 317 317 318 318 319 321 321 322 324 326 327 328 327 327 326 326 326 326 326 326 326 325 325 325 325 325 326 326 325 325 325
251 247 243 238 234 235 231 223 216 209 202 197 196 197 195 192 186 183 184 183 182 178 177 180 186 190 195 206 221 237 250 260 266 270 274 278 282 284 286 287 290 295 298 302 305 305 302 299 296 294 295 298 303 307 309 311 313 315 316 318 318 319 320 322 323 323 322 322 322 322 322 322 323 323 323 323 323 323 323 323 323 324 324 324 324
253 252 250 246 239 234 231 226 218 211 206 201 199 199 195 190 187 186 188 190 192 190 188 190 193 198 204 218 232 244 255 263 269 274 279 281 284 285 285 287 290 294 296 298 300 297 294 290 287 288 291 295 299 302 305 308 310 312 313 313 314 315 317 318 319 319 318 318 318 319 319 319 320 320 320 320 320 321 321 321 322 322 322 323 324
252 254 253 252 246 237 231 225 219 211 207 205 202 200 195 190 188 189 193 195 198 197 196 199 201 207 216 229 242 251 260 267 272 276 279 282 284 284 285 286 288 290 292 292 292 290 287 284 285 287 289 293 296 298 301 303 305 307 307 308 310 312 313 314 315 315 315 315 315 316 316 317 317 318 318 318 318 319 319 319 320 321 321 322 323
251 255 256 254 250 243 234 227 220 211 204 204 203 202 197 192 191 192 195 199 203 203 204 207 211 219 228 241 250 258 265 270 273 275 276 279 281 282 283 284 285 286 286 285 284 283 280 280 283 286 288 291 292 295 297 298 299 301 302 304 306 308 309 310 311 312 312 312 313 313 314 314 315 315 316 317 317 317 318 318 319 320 321 322 323
251 255 257 256 254 248 240 233 224 214 206 202 201 201 198 196 196 195 198 202 207 208 210 214 221 229 239 248 257 263 267 270 271 273 275 276 277 278 279 280 281 281 280 279 278 277 277 278 281 283 285 286 288 291 293 295 296 297 298 301 303 306 307 307 308 309 309 309 310 311 312 312 313 314 315 316 316 317 317 318 319 320 321 322 322
248 250 253 256 258 253 245 238 230 219 210 204 200 200 199 199 200 200 201 205 210 214 216 222 230 238 247 255 262 267 269 270 271 273 274 275 275 275 276 277 277 277 276 275 275 274 274 276 278 280 282 283 285 287 290 292 293 295 298 300 302 304 304 305 306 307 307 308 309 310 311 311 312 313 314 315 316 316 317 318 319 320 321 321 321
248 248 248 251 256 255 247 240 235 225 215 207 203 201 201 202 204 204 205 209 214 218 223 230 238 246 253 260 266 269 270 272 272 273 273 274 274 274 275 275 275 274 274 274 273 272 273 274 276 279 281 282 284 287 289 291 293 296 299 300 301 302 303 304 305 306 307 308 308 309 310 311 312 313 314 315 315 316 317 318 319 319 320 320 320
249 248 248 248 250 253 248 241 235 228 220 212 207 206 205 205 206 206 207 212 218 223 230 236 244 251 258 264 268 271 273 274 275 275 275 275 275 275 275 275 274 273 272 272 271 272 273 275 277 279 281 283 286 287 290 292 295 297 299 300 300 302 303 304 305 306 307 308 308 309 309 310 312 313 313 314 315 315 316 317 318 319 318 319 319
247 245 246 247 245 246 245 241 235 229 223 218 215 212 210 210 209 209 210 214 222 228 235 242 249 256 261 266 270 272 274 275 276 277 276 277 276 277 276 275 274 273 272 271 271 273 274 277 280 281 283 284 286 288 291 294 296 298 298 300 301 303 304 305 306 307 307 307 308 309 309 310 312 312 313 314 314 315 316 317 317 318 318 318 318
248 244 242 243 242 240 238 240 238 233 229 225 223 220 217 215 213 212 213 218 226 232 240 247 254 260 265 268 272 273 274 275 277 278 278 277 277 277 277 275 275 274 273 273 273 274 276 278 280 282 284 286 288 290 292 294 296 297 299 301 302 304 305 306 306 306 307 307 308 309 309 311 311 312 312 313 314 314 315 316 317 317 317 317 318
250 247 241 238 236 235 233 234 237 237 236 233 231 228 225 221 218 217 218 224 231 238 245 251 258 264 268 271 274 275 276 276 276 278 278 278 277 277 277 277 276 275 275 275 276 277 278 279 281 282 284 287 289 292 294 296 297 298 300 302 303 304 305 305 305 306 306 307 308 309 310 311 311 312 312 313 313 314 315 316 316 317 317 317 317
253 251 247 240 236 235 234 233 234 235 236 236 235 233 230 227 224 224 226 232 238 245 251 257 262 266 271 274 277 278 278 277 277 277 278 278 277 277 277 278 277 277 277 278 278 279 279 281 282 283 285 287 291 294 296 298 299 300 301 302 303 303 304 304 304 305 306 307 308 309 310 311 311 311 312 312 313 314 315 316 316 317 317 317 317
255 255 253 249 243 240 239 238 236 234 234 234 233 232 230 229 229 231 234 240 246 253 259 263 267 270 275 278 279 279 278 278 277 278 278 278 278 278 278 279 279 279 279 280 281 281 282 283 285 286 288 291 294 297 298 299 300 301 302 302 302 302 302 303 304 305 307 308 309 310 311 311 311 311 311 312 313 314 315 316 316 317 317 317 317
257 257 255 253 249 246 244 243 241 240 238 235 232 230 228 228 230 234 239 245 252 259 264 267 270 275 278 280 280 280 279 279 279 279 279 279 280 279 280 280 280 281 281 283 284 286 287 289 290 291 292 295 297 299 300 300 300 300 300 300 300 301 302 304 305 307 309 309 310 311 311 311 311 311 311 312 313 315 315 316 316 317 317 317 317
258 258 257 255 253 252 250 248 245 243 242 239 234 230 228 228 230 234 239 246 253 259 265 269 273 277 279 280 281 281 280 281 281 280 280 281 281 281 281 281 281 282 283 284 286 289 291 292 293 294 295 296 298 299 299 298 298 298 299 300 301 302 304 306 307 309 310 310 311 311 311 311 311 311 312 313 314 315 315 316 317 317 317 317 317
256 256 257 257 256 256 255 252 249 246 243 241 237 233 231 230 231 235 239 245 252 258 264 269 274 276 277 279 279 280 280 281 281 281 281 282 282 282 282 282 283 284 285 286 288 291 292 293 294 295 296 296 297 297 296 297 298 299 300 301 303 305 306 307 308 309 310 311 311 311 310 311 311 312 312 313 314 314 315 316 317 317 317 317 317
254 254 255 256 255 255 256 255 253 249 247 244 241 237 234 234 235 237 241 247 253 259 265 269 272 274 275 276 277 278 278 278 279 280 281 282 283 283 283 284 284 285 286 287 290 291 292 293 294 295 296 296 296 296 297 298 300 301 302 303 305 306 307 308 309 310 310 310 310 310 310 311 311 312 312 313 314 315 316 316 317 317 317 317 316
252 253 254 255 254 255 255 255 254 252 250 247 243 240 238 237 238 240 244 250 255 260 265 269 271 273 274 274 275 276 276 276 277 278 280 282 282 282 283 284 285 286 287 289 290 291 291 292 294 295 296 297 298 299 299 300 301 302 304 305 306 307 307 308 309 310 310 310 310 310 310 311 311 312 312 313 314 315 316 316 316 316 316 316 316
251 252 254 256 258 259 258 256 254 252 251 248 245 242 240 239 239 242 246 251 256 262 267 269 271 272 272 272 273 274 275 275 276 277 279 280 281 281 282 283 285 287 288 289 290 290 290 291 293 295 296 298 299 300 300 301 302 303 305 306 306 307 307 308 309 309 310 309 309 309 310 311 311 312 313 313 314 315 316 316 316 316 316 316 316
251 253 255 257 259 261 260 258 256 252 251 250 247 244 242 242 242 245 249 253 258 263 268 270 271 270 269 270 271 273 275 276 277 279 279 279 279 279 280 282 284 287 288 290 291 291 292 293 294 295 297 298 300 300 301 301 303 304 305 306 306 306 307 307 308 309 309 309 309 309 310 310 311 312 313 314 314 315 315 315 315 315 315 315 316
252 253 255 256 256 258 259 261 260 257 254 252 250 247 246 246 247 249 252 256 259 263 267 269 269 267 267 269 271 273 276 279 280 280 279 278 277 278 280 282 284 286 288 290 291 292 293 294 295 297 298 300 300 300 301 302 303 304 305 305 305 306 306 307 308 308 308 308 309 309 310 310 311 312 313 314 314 314 314 314 314 314 315 315 316
256 255 254 255 255 256 257 259 261 260 257 255 253 251 250 249 250 253 256 258 259 262 265 266 267 267 269 271 272 274 276 278 279 279 279 278 278 278 279 280 282 285 287 289 290 292 293 295 296 298 299 300 300 300 300 301 302 303 304 304 304 305 306 307 307 307 308 308 308 309 310 311 312 313 314 314 314 314 314 314 314 314 315 316 317
258 256 254 254 255 257 258 259 261 260 259 257 256 255 253 252 253 255 258 260 261 263 264 265 266 268 270 271 271 273 274 275 276 277 278 278 279 279 280 280 282 284 286 288 290 291 293 295 296 298 299 298 298 298 300 301 302 302 303 303 304 304 305 306 306 307 307 307 308 309 310 312 313 314 314 314 314 314 313 314 314 314 315 316 317
258 256 256 257 259 259 260 261 261 262 263 262 261 260 258 257 257 257 258 261 263 264 264 265 266 267 268 269 270 271 272 273 274 276 277 278 279 280 281 282 283 285 287 288 289 291 293 295 296 297 297 297 297 298 299 300 301 302 302 303 304 304 304 305 305 306 307 308 309 310 311 312 313 314 314 314 313 313 313 313 314 314 315 316 318
257 258 260 261 262 262 262 263 263 264 265 265 265 265 263 261 261 261 261 262 263 263 263 265 267 268 268 268 268 269 270 271 272 274 276 277 279 280 281 283 285 286 287 288 289 291 293 294 295 296 296 297 297 298 299 300 301 301 302 303 303 303 304 305 305 306 307 308 310 311 312 313 314 313 313 313 313 312 312 313 313 314 315 316 317
259 260 261 262 262 263 264 265 265 265 265 265 265 265 265 264 264 264 265 265 264 263 263 265 267 268 268 268 269 270 270 271 272 273 275 276 278 279 281 282 285 287 288 289 290 291 293 294 294 295 296 297 297 298 299 300 300 301 301 302 302 303 304 305 305 306 307 308 309 311 312 313 313 313 312 312 311 311 311 312 312 314 315 316 318
262 262 262 263 264 264 264 264 265 265 266 266 266 267 267 267 267 267 268 267 267 265 265 266 267 268 269 270 270 271 272 272 274 274 275 276 277 279 280 282 285 286 288 288 289 290 292 292 293 295 296 296 297 297 298 299 300 300 301 301 302 303 304 305 306 307 308 309 310 311 312 312 312 312 312 311 311 310 311 312 313 314 315 317 318
261 262 263 264 265 264 264 264 264 264 265 266 267 268 269 269 270 270 269 269 269 268 268 267 268 269 270 271 272 273 274 275 277 277 277 277 278 279 281 282 284 285 286 287 288 290 290 290 292 293 294 295 296 296 297 298 299 300 300 301 302 303 304 305 306 307 308 309 310 311 311 311 312 311 311 310 310 310 311 312 313 314 316 317 318
Height
5882 5882 5883 5884 5884 5885 5885 5885 5885 5886 5887 5887 5887 5887 5888 5888 5888 5889 5889 5890 5890 5891 5892 5892 5893 5894 5894 5895 5895 5895 5895 5895 5895 5895 5894 5894 5894 5893 5893 5892 5892 5892 5891 5891 5891 5891 5891 5891 5891 5890 5890 5890 5889 5889 5888 5888 5888 5888 5887 5887 5887 5886 5886 5886 5885 5885 5884 5884 5883 5883 5883 5882 5882 5881 5881 5881 5880 5880 5879 5879 5878 5878 5877 5876 5875
5883 5883 5884 5885 5886 5886 5886 5886 5887 5888 5888 5888 5888 5888 5889 5889 5889 5890 5890 5890 5890 5891 5892 5893 5893 5894 5894 5895 5895 5895 5895 5895 5895 5895 5895 5895 5894 5894 5893 5893 5892 5892 5892 5892 5892 5892 5892 5892 5892 5891 5891 5890 5890 5889 5889 5889 5888 5888 5888 5887 5887 5886 5886 5886 5885 5885 5884 5884 5884 5883 5883 5882 5882 5882 5881 5881 5881 5880 5879 5879 5878 5878 5877 5876 5875
5883 5884 5885 5886 5887 5887 5888 5888 5889 5889 5889 5889 5889 5889 5890 5890 5890 5890 5891 5891 5891 5892 5892 5893 5893 5894 5894 5895 5895 5895 5895 5895 5895 5895 5895 5894 5894 5893 5893 5893 5892 5892 5892 5893 5893 5893 5892 5892 5892 5891 5891 5890 5890 5889 5889 5889 5889 5888 5888 5887 5887 5887 5886 5886 5885 5885 5885 5884 5884 5884 5883 5883 5883 5882 5882 5881 5881 5880 5880 5879 5878 5878 5877 5876 5875
5884 5885 5886 5887 5888 5888 5889 5890 5890 5890 5890 5890 5890 5891 5891 5890 5891 5891 5891 5891 5892 5892 5893 5893 5894 5894 5894 5895 5895 5895 5895 5895 5895 5895 5894 5894 5894 5893 5893 5893 5893 5893 5893 5893 5893 5893 5892 5892 5892 5891 5891 5890 5890 5890 5889 5889 5889 5888 5888 5888 5887 5887 5886 5886 5886 5885 5885 5885 5885 5884 5884 5883 5883 5883 5882 5882 5881 5881 5880 5879 5878 5878 5877 5876 5875
5885 5885 5886 5887 5888 5889 5890 5890 5890 5891 5891 5891 5891 5892 5891 5891 5891 5892 5892 5892 5892 5893 5893 5894 5894 5894 5895 5895 5895 5895 5895 5895 5895 5894 5894 5894 5894 5893 5893 5893 5893 5893 5893 5893 5893 5893 5892 5892 5891 5891 5891 5891 5890 5890 5890 5889 5889 5889 5888 5888 5887 5887 5887 5887 5886 5886 5886 5885 5885 5885 5884 5884 5883 5883 5883 5882 5881 5881 5880 5879 5879 5878 5877 5876 5875
5886 5886 5887 5887 5889 5889 5890 5890 5891 5891 5892 5892 5892 5892 5892 5892 5892 5892 5893 5893 5893 5894 5894 5894 5895 5895 5895 5895 5895 5895 5895 5895 5895 5894 5894 5894 5894 5894 5894 5894 5893 5893 5893 5893 5893 5893 5892 5892 5892 5891 5891 5891 5891 5890 5890 5890 5889 5889 5889 5888 5888 5887 5887 5887 5887 5886 5886 5886 5885 5885 5885 5884 5884 5883 5883 5882 5882 5881 5880 5880 5879 5878 5877 5876 5875
5887 5887 5888 5888 5889 5889 5890 5890 5891 5892 5892 5892 5893 5893 5893 5893 5893 5893 5893 5894 5894 5895 5895 5895 5895 5895 5896 5896 5896 5896 5895 5895 5895 5895 5895 5894 5894 5894 5894 5894 5894 5893 5893 5893 5893 5893 5892 5892 5892 5892 5891 5891 5891 5891 5890 5890 5890 5890 5889 5889 5888 5888 5888 5888 5887 5887 5887 5886 5886 5886 5885 5885 5884 5884 5883 5882 5882 5881 5880 5879 5878 5877 5876 5875 5874
5888 5888 5888 5889 5889 5890 5890 5891 5891 5892 5892 5893 5893 5893 5894 5894 5894 5894 5894 5895 5895 5895 5895 5896 5896 5896 5896 5896 5896 5896 5896 5896 5896 5895 5895 5895 5895 5894 5894 5894 5894 5894 5893 5893 5893 5893 5893 5893 5892 5892 5892 5891 5891 5891 5891 5891 5890 5890 5890 5889 5889 5889 5889 5888 5888 5888 5888 5887 5887 5886 5886 5885 5884 5884 5883 5882 5882 5881 5880 5879 5878 5877 5875 5874 5873
5889 5889 5889 5889 5890 5890 5891 5891 5892 5892 5893 5893 5893 5894 5894 5895 5895 5895 5895 5896 5896 5896 5896 5897 5897 5897 5897 5897 5897 5897 5897 5897 5896 5896 5896 5896 5895 5895 5895 5895 5894 5894 5894 5893 5893 5893 5893 5893 5893 5892 5892 5892 5891 5891 5891 5891 5891 5891 5890 5890 5890 5890 5889 5889 5889 5888 5888 5887 5887 5886 5886 5885 5884 5883 5883 5882 5881 5880 5879 5878 5877 5876 5875 5874 5872
5889 5890 5890 5890 5890 5891 5891 5892 5892 5893 5893 5893 5894 5894 5895 5895 5896 5896 5896 5896 5897 5897 5897 5897 5898 5898 5897 5897 5897 5897 5897 5897 5897 5897 5896 5896 5896 5896 5895 5895 5895 5895 5894 5894 5894 5894 5894 5893 5893 5893 5892 5892 5892 5892 5891 5891 5891 5891 5891 5891 5891 5890 5890 5890 5889 5889 5888 5887 5887 5886 5885 5885 5884 5883 5882 5881 5880 5880 5879 5877 5876 5875 5874 5873 5872
5890 5890 5890 5891 5891 5891 5892 5892 5893 5893 5894 5894 5894 5895 5895 5896 5896 5896 5897 5897 5897 5898 5898 5898 5898 5898 5898 5898 5898 5898 5897 5897 5897 5897 5897 5897 5896 5896 5896 5896 5895 5895 5895 5895 5895 5894 5894 5894 5894 5893 5893 5893 5892 5892 5892 5892 5892 5892 5891 5891 5891 5891 5890 5890 5889 5889 5888 5887 5886 5886 5885 5884 5883 5883 5882 5881 5880 5879 5878 5877 5875 5874 5873 5872 5871
5890 5891 5891 5891 5892 5892 5892 5893 5893 5894 5894 5894 5895 5895 5896 5896 5897 5897 5898 5898 5898 5898 5898 5899 5899 5899 5898 5898 5898 5898 5898 5898 5898 5898 5897 5897 5897 5897 5897 5896 5896 5896 5896 5896 5895 5895 5895 5895 5894 5894 5894 5893 5893 5893 5893 5892 5892 5892 5892 5891 5891 5891 5890 5890 5889 5888 5888 5887 5886 5885 5884 5884 5883 5882 5882 5881 5880 5878 5877 5876 5875 5874 5872 5871 5870
5891 5891 5892 5892 5892 5892 5892 5893 5893 5894 5894 5895 5895 5895 5896 5897 5897 5898 5898 5898 5899 5899 5899 5899 5899 5899 5899 5899 5899 5899 5898 5898 5898 5898 5898 5898 5898 5897 5897 5897 5897 5897 5897 5896 5896 5896 5896 5895 5895 5895 5894 5894 5894 5894 5893 5893 5893 5892 5892 5892 5891 5891 5890 5889 5889 5888 5887 5886 5885 5885 5884 5883 5883 5882 5881 5880 5879 5878 5876 5875 5874 5873 5872 5871 5869
5891 5892 5892 5892 5893 5893 5893 5893 5894 5894 5895 5895 5896 5896 5896 5897 5898 5898 5899 5899 5899 5899 5899 5899 5899 5899 5899 5900 5899 5899 5899 5899 5899 5898 5898 5898 5898 5898 5898 5898 5898 5897 5897 5897 5897 5896 5896 5896 5895 5895 5895 5895 5894 5894 5894 5894 5893 5893 5893 5892 5891 5891 5890 5889 5888 5888 5887 5886 5885 5885 5884 5883 5882 5881 5880 5879 5878 5877 5876 5874 5873 5872 5871 5869 5868
5891 5892 5892 5893 5893 5893 5893 5893 5894 5894 5895 5896 5896 5897 5897 5898 5898 5899 5899 5899 5899 5899 5899 5899 5899 5900 5900 5900 5900 5900 5899 5899 5899 5899 5899 5899 5899 5899 5898 5898 5898 5898 5898 5897 5897 5897 5896 5896 5896 5896 5895 5895 5895 5895 5894 5894 5894 5893 5893 5892 5891 5891 5890 5889 5888 5888 5887 5886 5885 5885 5884 5883 5882 5880 5879 5878 5877 5876 5874 5873 5872 5870 5869 5868 5866
5891 5892 5892 5893 5893 5894 5894 5894 5894 5895 5896 5896 5897 5897 5898 5898 5899 5899 5899 5899 5899 5899 5899 5899 5900 5900 5900 5900 5900 5900 5900 5900 5899 5899 5899 5899 5899 5899 5899 5899 5899 5899 5898 5898 5897 5897 5897 5897 5896 5896 5896 5896 5895 5895 5895 5894 5894 5893 5893 5892 5891 5891 5890 5889 5888 5887 5887 5886 5885 5884 5883 5882 5881 5880 5879 5877 5876 5875 5873 5872 5871 5869 5868 5866 5865
5892 5892 5892 5893 5894 5894 5894 5894 5894 5895 5896 5896 5897 5898 5898 5898 5899 5899 5899 5900 5900 5899 5900 5900 5900 5900 5900 5900 5900 5900 5900 5900 5900 5900 5900 5900 5900 5900 5900 5900 5899 5899 5899 5899 5898 5898 5897 5897 5897 5897 5897 5896 5896 5895 5895 5894 5893 5893 5892 5892 5891 5890 5889 5889 5888 5887 5886 5886 5885 5884 5883 5882 5880 5879 5878 5876 5875 5874 5872 5871 5869 5868 5866 5865 5864
5892 5892 5892 5893 5894 5894 5895 5895 5895 5895 5896 5896 5897 5898 5898 5898 5899 5899 5899 5900 5900 5900 5900 5900 5900 5900 5900 5901 5901 5900 5900 5900 5900 5900 5900 5900 5900 5900 5900 5900 5900 5899 5899 5899 5899 5898 5898 5898 5897 5897 5897 5897 5896 5895 5895 5894 5893 5893 5892 5891 5891 5890 5889 5888 5887 5887 5886 5885 5884 5883 5882 5881 5879 5878 5877 5875 5874 5872 5871 5870 5868 5867 5865 5864 5862
5891 5892 5892 5893 5893 5894 5895 5895 5895 5895 5896 5896 5897 5898 5898 5899 5899 5899 5899 5899 5900 5900 5900 5900 5900 5900 5901 5901 5901 5901 5900 5900 5900 5900 5900 5900 5900 5900 5900 5900 5900 5900 5899 5899 5899 5898 5898 5898 5898 5897 5897 5897 5896 5895 5894 5894 5893 5893 5892 5891 5890 5889 5889 5888 5887 5886 5885 5885 5883 5882 5881 5879 5878 5877 5876 5874 5873 5871 5870 5868 5867 5865 5864 5862 5861
5891 5892 5892 5892 5893 5893 5894 5895 5895 5895 5896 5896 5897 5898 5898 5899 5899 5899 5899 5899 5900 5900 5900 5900 5900 5901 5901 5901 5901 5901 5901 5901 5901 5901 5901 5900 5900 5900 5900 5900 5900 5899 5899 5899 5898 5898 5898 5898 5898 5897 5897 5896 5896 5895 5894 5893 5893 5892 5891 5891 5890 5889 5888 5887 5886 5886 5885 5884 5882 5881 5880 5878 5877 5876 5874 5873 5871 5870 5869 5867 5865 5864 5862 5860 5858
5890 5891 5892 5892 5892 5893 5893 5894 5894 5895 5895 5896 5897 5897 5898 5899 5899 5899 5899 5900 5900 5900 5900 5900 5900 5901 5901 5901 5901 5901 5901 5901 5901 5901 5901 5900 5900 5900 5900 5900 5899 5899 5899 5898 5898 5898 5898 5898 5897 5897 5897 5896 5895 5894 5894 5893 5893 5892 5891 5890 5889 5888 5888 5887 5886 5884 5883 5882 5881 5879 5878 5877 5875 5874 5873 5871 5870 5868 5867 5865 5864 5862 5860 5858 5856
5890 5890 5891 5891 5892 5892 5892 5893 5894 5894 5895 5896 5896 5897 5898 5898 5899 5899 5899 5900 5900 5900 5900 5900 5900 5901 5901 5901 5901 5901 5901 5901 5901 5901 5900 5900 5900 5900 5899 5899 5899 5898 5898 5898 5898 5898 5897 5897 5897 5897 5896 5895 5895 5894 5894 5893 5892 5891 5891 5890 5889 5888 5887 5886 5885 5883 5882 5881 5879 5878 5877 5875 5874 5873 5871 5870 5868 5866 5865 5863 5861 5860 5858 5856 5854
5890 5890 5890 5891 5891 5891 5891 5892 5893 5893 5894 5895 5896 5896 5897 5898 5899 5899 5899 5900 5900 5900 5900 5900 5901 5901 5901 5901 5901 5901 5901 5901 5901 5900 5900 5900 5900 5899 5899 5899 5898 5898 5898 5898 5897 5897 5897 5897 5896 5896 5895 5895 5894 5894 5893 5892 5892 5891 5890 5889 5888 5887 5886 5885 5884 5882 5881 5880 5878 5877 5875 5874 5872 5871 5869 5868 5866 5864 5863 5861 5859 5857 5855 5853 5851
5889 5890 5890 5890 5890 5891 5891 5891 5892 5893 5893 5894 5895 5896 5896 5897 5898 5899 5899 5900 5900 5900 5900 5900 5900 5901 5901 5901 5901 5901 5901 5901 5900 5900 5900 5899 5899 5899 5899 5898 5898 5898 5897 5897 5897 5897 5896 5896 5896 5895 5895 5894 5893 5893 5892 5892 5891 5890 5889 5888 5887 5886 5885 5883 5882 5881 5879 5878 5877 5875 5874 5872 5871 5869 5867 5866 5864 5862 5860 5859 5857 5855 5853 5851 5849
5888 5889 5890 5890 5890 5890 5890 5891 5891 5892 5893 5893 5894 5895 5895 5896 5897 5898 5898 5899 5899 5899 5900 5900 5900 5900 5900 5901 5901 5900 5900 5900 5900 5900 5899 5899 5899 5898 5898 5898 5897 5897 5897 5897 5896 5896 5896 5895 5895 5894 5894 5893 5893 5892 5891 5890 5890 5889 5888 5887 5886 5884 5883 5882 5881 5880 5878 5877 5875 5874 5872 5871 5869 5867 5866 5864 5862 5860 5858 5856 5854 5852 5850 5848 5846
5887 5888 5889 5889 5890 5890 5890 5890 5891 5891 5892 5893 5893 5894 5895 5895 5896 5897 5898 5898 5899 5899 5899 5899 5900 5900 5900 5900 5900 5900 5900 5900 5899 5899 5899 5898 5898 5898 5898 5897 5897 5897 5896 5896 5896 5895 5895 5894 5894 5893 5893 5892 5892 5891 5890 5889 5888 5888 5886 5885 5884 5883 5882 5881 5880 5878 5877 5875 5874 5872 5870 5869 5867 5865 5864 5862 5860 5858 5856 5854 5852 5850 5848 5845 5843
5886 5887 5888 5889 5889 5890 5890 5890 5890 5890 5891 5892 5893 5894 5894 5895 5895 5896 5897 5898 5898 5899 5899 5899 5900 5900 5900 5900 5900 5900 5899 5899 5899 5898 5898 5897 5897 5897 5897 5896 5896 5896 5895 5895 5895 5894 5894 5893 5893 5892 5892 5891 5891 5890 5889 5888 5887 5886 5885 5884 5883 5882 5881 5879 5878 5877 5875 5873 5872 5870 5868 5867 5865 5863 5861 5859 5857 5855 5853 5851 5849 5847 5845 5842 5840
5885 5886 5887 5888 5888 5889 5889 5889 5889 5890 5890 5891 5892 5893 5893 5894 5895 5895 5896 5897 5898 5898 5898 5899 5899 5899 5899 5899 5899 5899 5898 5898 5898 5897 5897 5897 5896 5896 5896 5896 5895 5895 5895 5894 5894 5893 5893 5892 5892 5891 5891 5890 5890 5889 5888 5887 5886 5885 5884 5883 5881 5880 5879 5878 5876 5875 5873 5872 5870 5868 5866 5864 5863 5861 5859 5857 5855 5853 5850 5848 5846 5844 5841 5839 5837
5884 5885 5886 5887 5887 5888 5889 5889 5889 5889 5890 5890 5891 5892 5893 5893 5894 5895 5896 5896 5897 5897 5898 5898 5898 5898 5898 5898 5898 5898 5897 5897 5897 5896 5896 5896 5896 5895 5895 5895 5894 5894 5894 5893 5893 5892 5892 5891 5891 5890 5890 5889 5889 5888 5887 5886 5885 5884 5882 5881 5880 5879 5877 5876 5875 5873 5872 5870 5868 5866 5864 5862 5860 5858 5856 5854 5852 5850 5848 5845 5843 5841 5839 5836 5834
5883 5884 5884 5885 5886 5887 5888 5888 5889 5889 5889 5890 5890 5891 5891 5892 5893 5894 5895 5895 5896 5897 5897 5897 5898 5898 5898 5897 5897 5897 5896 5896 5896 5895 5895 5895 5895 5894 5894 5894 5894 5893 5893 5893 5892 5892 5891 5890 5890 5889 5888 5888 5887 5886 5886 5884 5883 5882 5881 5879 5878 5877 5875 5874 5873 5871 5869 5868 5866 5864 5862 5860 5858 5856 5854 5851 5849 5847 5845 5843 5840 5838 5836 5833 5831
5881 5882 5883 5884 5885 5886 5887 5887 5888 5889 5889 5890 5890 5890 5891 5891 5892 5893 5894 5895 5895 5896 5896 5897 5897 5897 5897 5896 5896 5896 5896 5895 5895 5895 5894 5894 5894 5894 5893 5893 5893 5892 5892 5892 5891 5890 5890 5889 5889 5888 5887 5886 5886 5885 5884 5883 5881 5880 5879 5877 5876 5875 5873 5872 5870 5869 5867 5865 5863 5862 5860 5858 5855 5853 5851 5849 5846 5844 5842 5840 5837 5835 5833 5830 5828
5880 5881 5882 5883 5883 5884 5886 5887 5887 5888 5889 5889 5890 5890 5890 5891 5891 5892 5893 5894 5894 5895 5896 5896 5896 5896 5896 5895 5895 5895 5895 5894 5894 5894 5894 5893 5893 5893 5892 5892 5892 5891 5891 5890 5890 5889 5889 5888 5887 5887 5886 5885 5884 5883 5882 5881 5879 5878 5877 5875 5874 5872 5871 5869 5868 5866 5865 5863 5861 5859 5857 5855 5853 5851 5848 5846 5844 5841 5839 5837 5835 5832 5830 5827 5824
5879 5879 5880 5881 5882 5883 5884 5885 5887 5887 5888 5889 5890 5890 5890 5890 5891 5891 5892 5893 5893 5894 5894 5894 5894 5894 5894 5894 5894 5894 5893 5893 5893 5893 5892 5892 5892 5891 5891 5891 5890 5890 5890 5889 5889 5888 5888 5887 5886 5885 5884 5883 5882 5881 5880 5879 5878 5876 5874 5873 5872 5870 5869 5867 5866 5864 5863 5861 5859 5857 5855 5853 5851 5848 5846 5843 5841 5838 5836 5834 5832 5829 5826 5824 5821
5878 5878 5879 5880 5881 5882 5882 5884 5885 5886 5888 5889 5889 5890 5890 5890 5891 5891 5892 5892 5893 5893 5893 5893 5893 5893 5893 5893 5893 5892 5892 5892 5892 5891 5891 5891 5890 5890 5890 5890 5889 5889 5888 5888 5887 5887 5886 5885 5884 5883 5882 5881 5880 5879 5879 5877 5876 5874 5873 5871 5870 5868 5867 5865 5863 5862 5860 5858 5856 5855 5853 5850 5848 5846 5843 5841 5838 5835 5833 5831 5828 5826 5823 5820 5817
5877 5878 5878 5879 5880 5881 5881 5882 5883 5885 5886 5888 5889 5889 5890 5891 5891 5891 5891 5892 5892 5892 5892 5892 5892 5892 5892 5891 5891 5891 5891 5891 5890 5890 5890 5889 5889 5889 5888 5888 5888 5887 5887 5886 5886 5885 5884 5884 5883 5882 5881 5880 5879 5878 5876 5875 5873 5872 5871 5869 5867 5866 5864 5862 5861 5859 5857 5855 5853 5851 5850 5847 5845 5843 5840 5838 5835 5832 5830 5827 5825 5822 5819 5816 5813
5876 5877 5878 5879 5879 5880 5880 5881 5882 5883 5884 5886 5887 5888 5889 5890 5890 5890 5891 5891 5891 5891 5891 5891 5891 5891 5891 5890 5890 5890 5889 5889 5889 5889 5889 5888 5888 5887 5887 5886 5886 5885 5885 5884 5884 5883 5883 5882 5881 5880 5879 5878 5877 5876 5874 5872 5871 5869 5868 5867 5865 5863 5862 5860 5858 5856 5854 5852 5850 5848 5846 5844 5842 5839 5837 5834 5832 5829 5826 5823 5821 5818 5815 5812 5809
5875 5876 5877 5878 5879 5879 5880 5880 5881 5882 5883 5884 5885 5886 5887 5888 5888 5889 5889 5890 5890 5890 5890 5890 5890 5890 5890 5889 5889 5888 5888 5888 5888 5887 5887 5887 5886 5886 5885 5885 5884 5884 5883 5882 5882 5881 5880 5880 5879 5878 5877 5875 5874 5873 5871 5870 5868 5867 5865 5864 5862 5860 5859 5857 5855 5853 5851 5849 5847 5845 5842 5840 5838 5836 5833 5830 5828 5825 5822 5820 5817 5814 5810 5807 5804
5874 5875 5876 5877 5878 5878 5879 5879 5880 5881 5882 5883 5883 5884 5885 5886 5886 5887 5887 5887 5888 5888 5888 5888 5888 5888 5888 5888 5887 5887 5887 5886 5886 5886 5885 5885 5885 5884 5884 5883 5882 5882 5881 5880 5880 5879 5878 5877 5877 5875 5874 5873 5872 5870 5869 5867 5866 5864 5863 5861 5859 5858 5856 5854 5852 5850 5848 5846 5844 5841 5839 5837 5834 5831 5829 5826 5823 5821 5818 5815 5812 5809 5806 5803 5800
5872 5873 5874 5875 5876 5877 5877 5878 5879 5880 5880 5881 5882 5882 5883 5883 5884 5884 5884 5885 5885 5886 5886 5886 5886 5886 5886 5886 5885 5885 5885 5885 5884 5884 5884 5883 5883 5882 5882 5881 5881 5880 5879 5878 5878 5877 5876 5875 5874 5873 5872 5870 5869 5868 5866 5864 5863 5861 5860 5858 5856 5854 5852 5851 5849 5847 5844 5842 5840 5838 5836 5833 5830 5827 5824 5822 5819 5817 5814 5811 5808 5805 5802 5799 5795
5871 5872 5872 5873 5874 5875 5875 5876 5877 5878 5879 5880 5880 5881 5881 5881 5882 5882 5882 5883 5883 5883 5884 5884 5884 5884 5884 5884 5883 5883 5883 5883 5882 5882 5882 5881 5881 5880 5880 5879 5878 5878 5877 5876 5875 5874 5873 5872 5871 5870 5869 5867 5866 5864 5862 5861 5859 5858 5856 5854 5852 5851 5849 5847 5845 5843 5841 5839 5837 5834 5832 5829 5826 5823 5820 5817 5814 5812 5809 5806 5803 5800 5798 5795 5791
5869 5869 5870 5871 5872 5873 5874 5874 5875 5876 5877 5878 5878 5879 5879 5879 5879 5880 5880 5881 5881 5881 5881 5881 5881 5881 5881 5881 5881 5881 5880 5880 5880 5879 5879 5879 5878 5878 5877 5877 5876 5875 5874 5874 5873 5872 5871 5869 5868 5867 5865 5864 5862 5860 5859 5857 5855 5854 5852 5850 5849 5847 5845 5844 5842 5840 5838 5835 5833 5830 5828 5825 5822 5819 5816 5813 5810 5807 5804 5801 5798 5796 5793 5790 5787
5867 5868 5869 5869 5870 5871 5872 5872 5873 5874 5875 5876 5876 5876 5877 5877 5877 5878 5878 5879 5879 5880 5879 5879 5879 5879 5879 5879 5878 5878 5878 5877 5877 5877 5877 5876 5875 5875 5874 5874 5873 5872 5872 5871 5870 5869 5868 5867 5865 5863 5862 5860 5858 5856 5855 5853 5852 5850 5849 5847 5845 5843 5841 5840 5838 5836 5834 5831 5829 5826 5824 5821 5818 5815 5811 5808 5805 5802 5799 5797 5794 5791 5788 5785 5782
5865 5866 5867 5867 5868 5869 5869 5869 5870 5872 5873 5873 5874 5874 5874 5874 5875 5876 5876 5877 5878 5878 5877 5877 5877 5877 5876 5876 5875 5875 5875 5875 5874 5874 5874 5873 5873 5872 5871 5870 5870 5869 5868 5868 5867 5866 5865 5863 5862 5860 5859 5857 5855 5853 5851 5850 5848 5847 5845 5843 5841 5840 5838 5836 5834 5832 5830 5827 5824 5822 5819 5817 5813 5810 5807 5804 5801 5798 5795 5792 5789 5786 5783 5780 5777
5863 5864 5865 5865 5866 5866 5866 5867 5868 5869 5870 5871 5871 5872 5872 5873 5874 5874 5874 5875 5875 5875 5875 5875 5874 5873 5873 5873 5873 5872 5872 5872 5872 5872 5871 5871 5870 5869 5868 5867 5866 5866 5865 5864 5863 5862 5861 5860 5858 5857 5856 5854 5852 5849 5848 5846 5845 5843 5841 5840 5838 5836 5834 5832 5830 5828 5826 5823 5820 5817 5815 5812 5809 5805 5802 5799 5796 5793 5790 5788 5785 5782 5779 5775 5772
5861 5862 5862 5862 5863 5863 5864 5864 5865 5867 5868 5868 5869 5869 5870 5871 5872 5872 5872 5873 5873 5873 5873 5872 5871 5870 5870 5870 5870 5870 5870 5869 5869 5868 5868 5867 5867 5866 5865 5864 5863 5862 5861 5860 5860 5859 5858 5857 5855 5854 5852 5851 5849 5846 5844 5843 5841 5839 5838 5836 5834 5832 5830 5828 5825 5823 5821 5819 5816 5813 5810 5807 5804 5801 5797 5794 5791 5788 5785 5783 5780 5777 5774 5770 5767
5859 5859 5859 5859 5860 5861 5862 5862 5863 5864 5865 5866 5866 5866 5867 5868 5869 5870 5870 5870 5870 5870 5870 5869 5868 5868 5868 5867 5867 5867 5867 5867 5866 5865 5865 5864 5863 5863 5862 5861 5860 5859 5858 5857 5856 5855 5855 5854 5852 5851 5849 5848 5846 5844 5841 5839 5838 5836 5834 5832 5830 5829 5827 5824 5821 5818 5816 5814 5812 5809 5806 5802 5799 5796 5792 5789 5786 5783 5780 5778 5775 5772 5769 5765 5761
5856 5855 5856 5857 5858 5859 5860 5860 5861 5862 5863 5863 5864 5864 5865 5866 5866 5867 5867 5868 5868 5868 5867 5866 5865 5865 5865 5865 5865 5864 5864 5864 5863 5862 5862 5861 5860 5859 5858 5857 5856 5856 5855 5854 5853 5852 5851 5850 5849 5848 5846 5844 5842 5840 5838 5836 5834 5832 5829 5827 5825 5824 5822 5820 5818 5815 5811 5809 5806 5804 5801 5798 5795 5791 5788 5784 5780 5777 5774 5772 5769 5767 5763 5760 5756
5851 5852 5854 5855 5856 5857 5857 5858 5858 5860 5860 5860 5861 5861 5861 5862 5863 5863 5864 5865 5865 5865 5864 5863 5863 5863 5863 5863 5862 5861 5861 5860 5860 5859 5859 5858 5857 5855 5854 5853 5853 5852 5852 5850 5850 5849 5848 5847 5846 5844 5842 5840 5838 5837 5834 5832 5830 5828 5825 5823 5821 5819 5817 5815 5813 5811 5808 5805 5802 5799 5796 5793 5790 5786 5783 5780 5776 5773 5770 5767 5764 5762 5759 5755 5751
5848 5850 5851 5852 5852 5854 5855 5855 5856 5857 5857 5857 5858 5858 5858 5859 5860 5860 5861 5862 5862 5861 5861 5860 5860 5859 5859 5860 5859 5858 5857 5857 5857 5856 5856 5855 5854 5852 5851 5850 5849 5849 5848 5847 5846 5845 5845 5843 5842 5840 5839 5836 5834 5832 5831 5828 5826 5823 5821 5819 5816 5814 5812 5810 5808 5806 5804 5801 5798 5795 5792 5789 5785 5781 5778 5775 5772 5769 5766 5763 5760 5757 5754 5750 5746
5846 5847 5848 5848 5849 5850 5851 5852 5853 5853 5853 5854 5855 5855 5855 5855 5856 5857 5858 5858 5858 5858 5857 5857 5857 5856 5856 5856 5856 5855 5854 5854 5854 5853 5853 5852 5851 5849 5848 5847 5846 5846 5845 5843 5842 5841 5841 5839 5838 5836 5834 5832 5830 5828 5826 5824 5822 5820 5817 5815 5812 5809 5807 5805 5802 5800 5798 5796 5793 5790 5787 5785 5781 5777 5773 5769 5766 5764 5761 5758 5754 5751 5748 5744 5740
5843 5844 5845 5845 5845 5846 5847 5848 5849 5849 5850 5851 5851 5852 5852 5852 5853 5854 5854 5854 5855 5854 5854 5854 5854 5853 5852 5852 5852 5852 5851 5851 5851 5850 5849 5849 5848 5846 5844 5844 5843 5842 5841 5839 5838 5837 5836 5835 5834 5832 5830 5828 5826 5823 5822 5820 5818 5815 5813 5810 5808 5805 5803 5800 5798 5795 5793 5790 5788 5785 5782 5779 5777 5773 5769 5765 5761 5758 5756 5753 5749 5745 5741 5738 5735